Location: Newark
(35.0033°N, 81.0878°W)
Time: 06:21:15
(UTC+00:00)

Envisat - Pass Details

Date: 26 October 2020
Orbit: 764 x 766 km, 98.1° (Epoch: 30 November)

Event Time Altitude Azimuth Distance (km) Brightness Sun altitude
Rises 10:59:27 0° 18° (NNE) 3,236 6.4 -9.0°
Reaches altitude 10° 11:01:50 10° 23° (NNE) 2,306 5.7 -8.5°
Maximum altitude 11:06:48 54° 100° (E) 930 4.0 -7.5°
Drops below altitude 10° 11:11:44 10° 177° (S) 2,291 5.7 -6.5°
Sets 11:14:04 0° 182° (S) 3,212 6.4 -6.1°
